Location: Quedlinburg
(51.7921°N, 11.1414°E)
Time: 06:00:55
(UTC+02:00)

BEESAT - Pass Details

Date: 18 March 2026
Orbit: 683 x 693 km, 98.4° (Epoch: 17 April)

Event Time Altitude Azimuth Distance (km) Brightness Sun altitude
Rises 01:18:46 0° 6° (N) 3,067 ? -37.9°
Reaches altitude 10° 01:21:24 10° 352° (N) 2,145 ? -37.8°
Enters shadow 01:22:19 14° 344° (NNW) 1,874 ? -37.8°
